Other Public Products
Issued by NWS Grand Forks, ND

Home | Current Version | Previous Version | Graphics & Text | Print | Product List | Glossary On
Versions: 1 2 3 4 5 6 7 8 9 10 11 12 13 14 15 16 17 18 19 20 21 22 23 24 25 26 27 28 29 30 31 32 33 34 35 36 37 38 39 40 41 42 43 44 45 46 47 48 49 50
000
FPUS83 KFGF 290731
OPUFGF
PRAIRIE TO PINES WEATHER ROUNDUP
NATIONAL WEATHER SERVICE EASTERN NORTH DAKOTA/GRAND FORKS ND
200 AM CDT TUE JUL 29 2014

 **SATELLITE DATA USED TO AUGMENT SKY COVER AT AUTOMATED STATIONS**
 *****  WEATHER ACROSS EASTERN NORTH DAKOTA  *****

CITY           SKY/WX    TMP DP  RH WIND       PRES   REMARKS
GRAND FORKS    CLEAR     55  53  93 W7        30.18S
GRAND FORKS AF CLEAR     54  53  99 W2        30.19S
GRAND CITY NWS   N/A     52 N/A N/A MISG        N/A
BUXTON           N/A     56  55  98 W5          N/A
DEVILS LAKE    CLEAR     57  52  82 CALM      30.20S
FARGO          CLEAR     54  50  86 W3        30.19R
WAHPETON ARPT  SUNNY     52  46  82 W5        30.19F
$$

 *****  WEATHER ACROSS CENTRAL AND WESTERN NORTH DAKOTA  *****

CITY           SKY/WX    TMP DP  RH WIND       PRES   REMARKS
JAMESTOWN      CLEAR     55  51  86 CALM      30.22S
BISMARCK       CLEAR     54  52  93 NE3       30.24S
MINOT          CLEAR     56  53  90 CALM      30.22S
MINOT AFB      CLEAR     56  56  99 CALM      30.21F
GARRISON         N/A     55  52  89 CALM      30.23S
WILLISTON      CLEAR     58  54  86 N3        30.22S
DICKINSON      CLEAR     55  50  83 S8        30.24S
HETTINGER      CLEAR     57  50  77 SE6       30.27S
$$

 *****  OTHER OBSERVATIONS NORTHEAST NORTH DAKOTA  *****

CITY           SKY/WX    TMP DP  RH WIND       PRES   REMARKS
WALHALLA         N/A     54  54 100 CALM        N/A
LANGDON        FAIR      48  48 100 W5        30.21S FOG
CAVALIER       FAIR      55  54  94 CALM      30.19S
GRAFTON        FAIR      57  55  94 W5        30.18S
CANDO          FAIR      50  50 100 NW3       30.22S
FORT TOTTEN    NOT AVBL
ROLLA          CLOUDY    50  50 100 CALM      30.24S
RUGBY          FAIR      54  54 100 CALM      30.22S
 ***** THE ABOVE OBSERVATIONS ARE NON NWS ARE NOT QUALITY
        CONTROLLED AND MAY MIS-REPORT RAIN FOR SNOW...
$$

 *****  OTHER OBSERVATIONS SOUTHEAST NORTH DAKOTA *****

CITY           SKY/WX    TMP DP  RH WIND       PRES   REMARKS
COOPERSTOWN    NOT AVBL
VALLEY CITY    FAIR      54  54 100 CALM      30.22S
OAKES          NOT AVBL
GWINNER        SUNNY     55  54  94 W7        30.23R
BUFFALO        NOT AVBL
WYNDMERE       NOT AVBL
 ***** THE ABOVE OBSERVATIONS ARE NON NWS ARE NOT QUALITY
       CONTROLLED AND MAY MIS-REPORT RAIN FOR SNOW...
$$

  *****  WEATHER ACROSS NORTHERN MINNESOTA  *****

CITY           SKY/WX    TMP DP  RH WIND       PRES   REMARKS
FLAG ISLAND    CLEAR     64  57  77 NW13      30.12S
WARROAD        CLEAR     59  55  88 W7        30.15S
ROSEAU         CLEAR     57  54  88 NW3       30.16S
HALLOCK        CLEAR     57  55  94 CALM      30.17S
THF RVR FALLS  CLEAR     59  54  82 CALM      30.18S
HALSTAD          N/A     53  52  95 W5          N/A
FOSSTON        CLEAR     50  46  87 CALM      30.18F
BAUDETTE       CLEAR     59  56  89 NW6       30.14S
WASKISH        MOCLDY    63  57  82 NW7       30.14S
CROOKSTON      CLEAR     55  54  94 NW3         N/A
$$
  *****  WEATHER ACROSS CENTRAL AND WEST MINNESOTA  *****

CITY           SKY/WX    TMP DP  RH WIND       PRES   REMARKS
BEMIDJI        CLEAR     54  52  92 NW5       30.16S
PARK RAPIDS    CLEAR     53  51  93 CALM      30.17F
WADENA         CLEAR     54  52  94 W6        30.18S
DETROIT LAKES  CLEAR     57  54  88 NW3       30.20S
MOORHEAD       CLEAR     55  55 100 CALM      30.20S
FERGUS FALLS   CLEAR     54  52  94 N5        30.19F
ELBOW LAKE     FAIR      55  53  92 W5        30.19S
MORRIS MN      CLEAR     52  52 100 NW5       30.19S
STAPLES        CLEAR     54  52  94 W3        30.17S
WHEATON        CLEAR     55  52  88 CALM      30.21F
$$
  *****  WEATHER ELSEWHERE ACROSS MINNESOTA  *****

CITY           SKY/WX    TMP DP  RH WIND       PRES   REMARKS
DULUTH         PTCLDY    59  54  83 NW6       30.10S
INTRNTL FALLS  PTCLDY    58  55  90 CALM      30.10F
ELY            CLOUDY    57  54  88 NW3       30.11S
CLOQUET        CLEAR     57  54  88 CALM      30.11R
BRAINERD       CLEAR     59  53  80 NW5       30.16F
HIBBING        CLEAR     53  51  93 W3        30.12F
ALEXANDRIA     CLEAR     58  54  86 NW3       30.20S
SAINT CLOUD    CLEAR     59  54  83 NW5       30.15F
MINNEAPOLIS    CLEAR     63  56  78 NW7       30.13F
$$

  *****  WEATHER ACROSS SOUTH DAKOTA  *****

CITY           SKY/WX    TMP DP  RH WIND       PRES   REMARKS
SIOUX FALLS    CLEAR     55  53  93 CALM      30.22S
BROOKINGS      NOT AVBL
WATERTOWN      CLEAR     52  51  97 CALM      30.22F
HURON          CLEAR     51  49  92 CALM      30.22S
SISSETON         N/A     52  51  97 CALM      30.20S
ABERDEEN       CLEAR     48  47  96 CALM      30.23S
MITCHELL       CLEAR     56  53  90 CALM      30.23S
PIERRE         CLEAR     57  52  83 NE5       30.22S
MOBRIDGE       CLEAR     56  50  80 SE7       30.22S
RAPID CITY     CLEAR     57  50  77 CALM      30.28S
$$

  *****  SOME WEATHER IN NEARBY STATES *****

CITY           SKY/WX    TMP DP  RH WIND       PRES   REMARKS
GLASGOW MT     CLEAR     65  47  52 E9        30.20R
GREAT FALLS MT MOCLDY    69  48  47 SE3       30.18R
CHEYENNE WY    PTCLDY    60  53  77 W5        30.33F
SCOTTSBLUFF NE PTCLDY    67  60  78 E9        30.22S
OMAHA NE       CLEAR     63  57  81 N5        30.20S
DES MOINES IA  CLEAR     62  58  86 NW3       30.16S
DAVENPORT IA   CLEAR     52  50  93 W7        30.12S
CHICAGO IL     PTCLDY    64  51  62 NW8       30.04F
EAU CLAIRE WI  PTCLDY    59  54  83 W7        30.08F
LA CROSSE WI   CLEAR     59  55  87 CALM      30.09F
$$

  *****  SOME NATIONAL WEATHER *****

CITY           SKY/WX    TMP DP  RH WIND       PRES   REMARKS
LA GUARDIA NY  PTCLDY    67  55  65 NW18G25   29.74R
RALEIGH NC     PTCLDY    68  56  65 CALM      29.88S
ATLANTA GA     CLEAR     70  60  70 NW8       29.97F
NEW ORLEANS LA MOCLDY    83  73  72 N9        30.00S
OKLAHOMA CITY  MOCLDY    72  63  73 CALM      30.16F
ALBUQUERQUE NM LGT RAIN  71  61  70 NE12      30.33R
SALT LAKE CITY CLOUDY    68  62  81 N6        30.22F
LOS ANGELES CA PTCLDY    69  61  75 CALM      30.02S
BOISE ID       MOCLDY    83  48  29 SE6       30.04S
SEATTLE WA     CLEAR     73  51  46 NE14      30.09S
$$

*** WEATHER ACROSS MANITOBA...SASKATCHEWAN AND ONTARIO ***
                ***ONTARIO***

CITY           SKY/WX    TMP DP  RH WIND       PRES   REMARKS
GERALDTON      CLEAR     54  54 100 NW5       29.95F
THUNDER BAY    PTCLDY    57  55  94 SW7       29.99F
SIOUX LOOKOUT  MOCLDY    54  54 100 SW3       30.05F
TORONTO        PTCLDY    55  52  88 NW10      29.88S
BIG TROUT LK   CLEAR     52  50  93 NE5       30.06R
PICKLE LAKE    NOT AVBL
DRYDEN         CLEAR     59  55  88 SW7       30.07F
KENORA         MOCLDY    63  55  77 NW8       30.12F
$$
                *** MANITOBA***

CITY           SKY/WX    TMP DP  RH WIND       PRES   REMARKS
BRANDON        CLEAR     50  48  93 NW6       30.22S
DAUPHIN        CLEAR     55  52  88 W9        30.19S
ISLAND LAKE    PTCLDY    64  54  68 NW5       30.06S
PILOT MOUND      N/A     54  50  87 W6          N/A
THE PAS        CLEAR     55  54  94 CALM      30.16S
THOMPSON       PTCLDY    52  50  93 W2        30.09S
WINNIPEG       PTCLDY    54  52  94 W7        30.17S
LYNN LAKE      CLEAR     57  54  88 W5        30.12S
CHURCHILL      FOG       45  45 100 SE6       30.17S VSB 1/2
GILLAM         CLEAR     55  55 100 NE8       30.11R
$$
                ***SASKATCHEWAN***

CITY           SKY/WX    TMP DP  RH WIND       PRES   REMARKS
ESTEVAN        CLEAR     59  57  94 SE2       30.23S
KINDERSLEY     CLEAR     61  55  82 SE9       30.22S
LLOYDMINSTER   CLEAR     63  57  82 S8        30.20F
PRINCE ALBERT  FOG       57  57 100 CALM      30.20S VSB 1/2
REGINA         CLEAR     61  59  94 SE2       30.22S
YORKTON        CLEAR     59  55  88 S3        30.21S


USA.gov is the U.S. government's official web portal to all federal, state and local government web resources and services.